Find Intelsat IS-29e

NORAD ID: 41308 Int'l Des: 2016-004 Owner: INTELU Country: US operational
MEOCIRCULAR

Aktuelle Ansicht

3D-Globus wird geladen...

Über Intelsat IS-29e

Beschreibung wird geladen...

Nächste Überflüge

Passes for default location (London). Set your location on the main map for personalized predictions.

Höhenverlauf

Loading altitude history...

Zweizeiliger Elementsatz

1 41308U 16004A 26150.14229743 -.00000103 00000-0 00000+0 0 9997
2 41308 6.4559 70.5307 0001592 36.8193 169.7052 1.00613675 38095
Epoch: 30. Mai 2026 • Age: 5 hours

Aktueller Status

Höhe 35693.8 km
Geschwindigkeit 3.08 km/s
Subsatellitenpunkt -6.18°S, 21.47°W
Startdatum 27. Jan. 2016
Alter 10.3 years
Typ communications

Technische Details

Klassifizierung Payload
Masse 6552.00 kg
Trockenmasse 2946.00 kg
Gesamtmasse 6552.00 kg
Länge 7.50 m
Durchmesser 3.00 m
Spannweite 44.00 m
Form Box + 2 panels
Hersteller BOES
Bus-Typ BSS-702MP
Phasenstatus In Orbit
Besitzer/Staat INTELU/US

Most Searched